Home > Weather > Kathmandu > Past weeks

Flag for Nepal Weather for the Past 2 Weeks in Kathmandu, Nepal

Now
43 °F

Passing clouds.


Feels Like: 41 °F
Forecast: 33 / 74 °F
Wind: 3 mph from East

Location: Kathmandu Airport

Current Time: Feb 15, 2016 at 3:04:21 AM

Latest Report: Feb 15, 2016 at 2:35 AM


Visibility: 4 mi

Pressure: 30.15 "Hg (25.70 "Hg at 1305m altitude)

Humidity: 81%

Dew point: 37 °F

Location of KathmanduLocation

Historic Weather in Kathmandu — Graph

°F

Kathmandu Temperature Yesterday

Maximum temperature yesterday: 72 °F (at 2:05 PM)
Minimum temperature yesterday: 39 °F (at 6:05 AM)
Average temperature yesterday: 56 °F

High & Low Weather Summary for the Past Weeks

 TemperatureHumidityPressure
High72 °F (Feb 7, 2:05 PM)100% (Jan 31, 6:35 AM)30.24 "Hg (Jan 31, 6:35 AM)
Low37 °F (Feb 3, 7:05 AM)14% (Feb 13, 2:35 PM)29.92 "Hg (Feb 11, 3:05 PM)
Average54 °F70%30.07 "Hg
* Reported Jan 31 12:05 AM — Feb 15 12:35 AM, Kathmandu, Weather by CustomWeather, © 2016

Note: Actual official high and low records may vary slightly from our data, if they occured in-between our weather recording intervals... More about our weather records

Advertising

Kathmandu Weather History for the Previous 24 Hours

 ConditionsComfort  
Time TempWeatherWind HumidityBarometerVisibility
12:35 AM
Mon, Feb 15
46 °FPassing clouds.3 mph76%30.18 "Hg4 mi
12:05 AM46 °FPassing clouds.No wind71%30.18 "Hg4 mi
11:35 PM
Sun, Feb 14
48 °FPassing clouds.2 mph66%30.18 "Hg4 mi
11:05 PM48 °FPassing clouds.3 mph66%30.18 "Hg4 mi
10:35 PM50 °FPassing clouds.2 mph67%30.18 "Hg4 mi
10:05 PM52 °FPassing clouds.2 mph62%30.18 "Hg4 mi
9:35 PM52 °FPassing clouds.3 mph58%30.18 "Hg4 mi
9:05 PM54 °FPassing clouds.5 mph54%30.15 "Hg4 mi
8:35 PM55 °FPassing clouds.5 mph47%30.15 "Hg4 mi
8:05 PM57 °FPassing clouds.5 mph44%30.12 "Hg4 mi
7:35 PM59 °FPassing clouds.3 mph42%30.12 "Hg5 mi
7:05 PM61 °FPassing clouds.3 mph36%30.09 "Hg5 mi
6:35 PM63 °FPassing clouds.7 mph34%30.09 "HgN/A
6:05 PM63 °FPassing clouds.8 mph32%30.07 "HgN/A
5:35 PM64 °FPassing clouds.10 mph30%30.07 "HgN/A
5:05 PM68 °FPassing clouds.9 mph28%30.07 "HgN/A
4:35 PM68 °FPassing clouds.12 mph28%30.04 "HgN/A
4:05 PM70 °FPassing clouds.10 mph25%30.04 "HgN/A
3:35 PM70 °FPassing clouds.10 mph23%30.04 "HgN/A
3:05 PM72 °FPassing clouds.9 mph20%30.04 "HgN/A
2:35 PM72 °FPassing clouds.9 mph20%30.07 "HgN/A
2:05 PM72 °FPassing clouds.10 mph22%30.07 "HgN/A
1:05 PM70 °FPassing clouds.12 mph21%30.09 "HgN/A
12:35 PM70 °FPassing clouds.8 mph17%30.09 "Hg4 mi
12:05 PM70 °FPassing clouds.5 mph23%30.12 "Hg4 mi
11:35 AM66 °FHaze.3 mph35%30.12 "Hg3 mi
11:05 AM64 °FHaze.3 mph37%30.15 "Hg3 mi
10:35 AM63 °FHaze.2 mph45%30.15 "Hg2 mi
10:05 AM59 °FHaze.2 mph51%30.15 "Hg2 mi
9:35 AM55 °FHaze.2 mph63%30.15 "Hg2 mi
9:05 AM52 °FHaze.2 mph72%30.15 "Hg1 mi
8:35 AM50 °FFog.2 mph71%30.15 "Hg1 mi
8:05 AM45 °FFog.No wind81%30.15 "Hg1 mi
7:05 AM41 °FFog.5 mph81%30.12 "Hg2 mi
6:35 AM41 °FFog.2 mph87%30.09 "Hg2 mi
6:05 AM39 °FFog.2 mph87%30.09 "Hg2 mi
5:35 AM41 °FFog.3 mph87%30.09 "Hg2 mi
4:35 AM41 °FFog.5 mph87%30.07 "Hg3 mi
3:35 AM43 °FPassing clouds.3 mph87%30.07 "Hg4 mi
Weather by CustomWeather, © 2016

See weather overviewHow to use our weather pages